Terminal Aerodrome Forecast
Issued by NWS

Home | Current Version | Previous Version | Text Only | Print | Product List | Glossary On
Versions: 1 2 3 4 5 6 7 8 9 10 11 12 13 14 15 16 17 18 19 20 21 22 23 24 25 26 27 28 29 30 31 32 33 34 35 36 37 38 39 40 41 42
000
FTUS41 KCTP 112320
TAFBFD
TAF
KBFD 112320Z 1200/1224 21005KT P6SM SKC
     FM120600 00000KT 4SM BR VCFG FEW060
     FM121200 VRB04KT P6SM FEW250=

USA.gov is the U.S. government's official web portal to all federal, state and local government web resources and services.